map of DLG home
DLG - Airport
Location
City:  Dillingham, Alaska, United States
ICAO:PADL
IATA:DLG
FAA LID:DLG

Details
Type:Airport (Part 139 Class I)
Use:Public/Civil
Latitude:5902'41"N (59.044667)
Longitude:15830'20"W (-158.505499)
Datum:WGS 1984
Elevation:82 ft (25 m)
Variation:12.31E (WMM2015v2 magnetic declination)
-0.28 annual change
Runways:1
Longest:6400 × 150 ft (1951 × 45.5 m), paved

Time
Time Zone:UTC-9 (DST-8)
Local Time:

Weather
METAR:PADL 041353Z 05011KT 10SM SCT004 OVC010 01/01 A2990 RMK 007V011
TAF:PADL 041334Z 0414/0512 VRB05KT P6SM SCT004 OVC015
TEMPO 0414/0416 3SM BR BKN004
FM041800 04012G20KT 3SM -RASN BR SCT004 OVC012 WS020/14035KT
FM042200 09012G20KT 1 1/2SM -RA BR BKN004 OVC012 WS020/15040KT
FM050300 14011KT 3SM -RA BR SCT004 OVC015

Related Locations
Nearby:
Farthest:FAAF: 10751 mi / 17303 km
Struisbaai [Andrew's Field Airport], WC, ZA

Find:

   beyond  
but within

Other Information
Maps:
NOTAMs:
Links:
Sources:

  
  • flag of United States
  • flag of Alaska
  

Sectional Chart

Flight Planning
at skyvector.com

Satellite Image

Google Maps Satellite view

 

Copyright © 2004-2019 Karl L. Swartz. All rights reserved.
The Great Circle Mapper name and logo are trademarks of the Great Circle Mapper.
All other trademarks mentioned herein belong to their respective owners.
Please see credits for attibutions and further copyright information.

  Follow gcmap on Facebook Follow gcmap on Twitter GCmap on LinkedIn

hCard Microformat

Geo Microformat